Location: Chillicothe
(39.7950°N, 93.5520°W)
Time: 04:52:24
(UTC-06:00)

Vanguard 3 - Pass Details

Date: 22 October 2019
Orbit: 508 x 3263 km, 33.3° (Epoch: 14 November)

Event Time Altitude Azimuth Distance (km) Brightness Sun altitude
Rises 03:40:22 0° 262° (W) 2,626 - -44.1°
Reaches altitude 10° 03:42:32 10° 250° (WSW) 1,819 - -43.8°
Maximum altitude 03:46:00 29° 188° (S) 1,194 - -43.2°
Drops below altitude 10° 03:50:42 10° 129° (SE) 2,496 - -42.4°
Exits shadow 03:51:32 - 126° (SE) 2,812 10.2 -42.2°
Sets 03:54:13 0° 120° (ESE) 3,843 11.0 -41.8°
